Dewpoint
58 50 52 47 45 44 39 32 24 31 30 24 18 21 16 23 23 20 20 21 18 24 24 25 28 34 25 26 27 29 29 24 22 19 33 52 59 61 66 67 67 67 67 67 69 70 70 71 71 70 70 71 71 72 71 71 71 71 71 70 70 70 70 70 69 69 68 68 68 68 68 68 68 68 68 67 66 65 65 65 65 65 64 64 64 64 64 64 66 67 68 68 69 69 69 68 68
50 49 49 48 43 42 33 30 28 22 23 18 21 19 21 22 22 19 17 19 24 28 31 27 30 41 42 42 38 37 40 47 37 49 52 56 60 63 66 66 66 65 67 67 68 68 69 70 70 70 70 71 71 72 72 71 71 71 70 70 69 69 69 69 69 69 68 67 68 68 68 68 68 67 68 67 65 64 65 65 65 65 65 64 64 64 63 63 65 68 68 68 69 68 68 68 68
46 44 44 43 37 39 33 31 24 20 18 10 17 18 23 20 19 19 19 22 34 37 38 36 37 35 33 35 31 29 36 51 51 52 54 60 61 62 65 66 67 67 66 67 68 69 70 70 70 70 70 71 71 72 72 72 71 70 70 70 70 69 69 69 68 69 67 67 68 68 68 68 68 68 67 67 65 64 65 65 65 64 65 64 64 63 63 63 66 66 66 67 67 67 67 67 67
51 47 42 42 33 33 26 25 25 17 17 15 12 21 21 20 18 19 25 36 36 34 31 31 31 38 33 28 32 40 43 48 53 53 55 59 59 63 65 66 69 66 67 68 68 69 70 70 70 71 71 70 70 70 72 71 70 70 70 70 69 69 69 68 68 68 67 67 68 68 68 68 68 68 67 67 64 65 65 64 64 64 64 64 64 64 64 64 65 64 65 66 66 67 67 67 66
51 45 48 40 41 31 32 30 22 18 12 13 12 21 21 21 18 23 32 37 33 28 29 33 34 42 42 38 36 31 42 50 51 53 56 61 62 64 66 68 67 66 66 67 67 68 70 69 70 70 70 70 70 70 70 71 70 70 70 70 69 69 68 69 69 69 67 68 68 68 68 68 68 67 67 66 64 64 64 64 64 63 63 64 63 63 63 65 65 65 65 66 66 66 66 66 66
47 40 46 44 34 34 28 26 22 15 19 17 11 14 17 18 18 26 31 34 34 32 28 31 29 35 37 44 46 37 46 43 52 53 58 61 63 65 67 69 66 66 66 66 67 69 70 69 70 70 70 70 70 70 70 70 70 70 70 70 69 69 69 69 69 69 67 68 68 68 68 68 67 67 67 64 63 64 64 63 63 63 63 63 63 63 63 64 65 66 66 67 67 67 67 66 66
41 36 38 35 34 37 26 21 18 17 20 20 20 15 18 19 22 27 29 29 28 24 22 26 31 35 29 41 43 48 52 54 52 55 61 63 64 65 66 68 67 66 66 66 68 70 71 68 70 71 71 71 71 71 70 70 70 70 70 69 69 69 69 69 69 69 68 68 68 67 68 68 66 66 66 64 63 64 63 63 62 63 63 63 62 62 62 64 64 65 66 66 66 67 66 66 66
44 41 39 28 31 33 25 23 20 22 21 22 22 22 20 21 24 26 26 26 22 22 26 31 35 28 28 38 35 49 54 55 56 60 62 62 64 66 66 67 66 66 67 67 68 70 70 68 70 71 71 71 71 71 70 70 70 70 70 69 69 69 69 69 69 69 68 68 68 67 68 67 67 66 65 63 63 64 63 63 62 62 62 62 62 62 62 63 63 64 64 65 66 66 66 66 65
37 31 40 37 26 31 23 22 23 21 22 23 21 26 33 24 23 24 24 24 20 20 30 32 30 21 28 32 33 47 49 55 56 59 62 64 64 67 65 65 65 67 67 67 69 70 71 68 69 70 71 71 71 71 70 70 70 70 70 70 70 69 69 69 69 68 68 68 68 68 68 67 67 66 64 62 62 64 64 63 63 63 63 62 63 63 63 63 66 66 66 66 66 66 65 65 65
33 35 24 31 31 25 23 21 22 22 22 21 21 20 23 23 20 20 22 21 20 21 29 29 27 20 29 26 30 41 49 56 53 61 64 64 65 66 65 65 66 67 68 68 68 69 69 69 67 68 69 70 71 71 70 70 70 70 70 70 70 70 70 69 69 69 68 68 68 68 68 68 67 66 64 62 61 63 64 64 63 63 63 63 63 63 63 63 64 63 64 65 65 65 64 64 64
29 29 40 30 25 21 22 19 21 21 21 21 20 20 25 22 18 18 18 18 21 23 31 28 24 22 29 27 33 45 49 49 58 60 63 64 66 66 65 65 67 68 67 69 69 70 69 69 67 67 68 68 70 70 70 70 69 69 70 70 70 70 70 69 69 69 69 68 68 68 67 68 67 66 63 61 61 62 64 64 63 63 63 63 63 63 63 62 61 62 63 63 64 64 63 63 63
26 27 34 25 22 23 18 16 21 22 20 20 18 21 23 21 18 17 16 17 19 22 27 28 23 29 26 27 31 42 48 53 61 62 63 64 66 67 66 66 67 67 68 69 70 70 69 69 69 68 66 67 69 69 70 70 70 70 70 70 70 70 70 70 69 69 69 68 68 68 68 67 67 65 62 61 61 62 63 64 64 63 63 63 62 60 60 61 61 61 62 63 63 62 62 62 62
35 37 22 20 24 20 26 20 22 28 23 18 18 19 22 19 17 17 16 19 20 21 24 27 33 31 19 23 34 40 48 54 61 62 64 64 66 68 67 67 66 68 67 69 69 70 71 69 69 69 67 64 65 67 67 68 69 70 70 70 70 70 70 70 69 69 69 68 68 68 68 68 66 63 61 60 61 62 62 62 62 62 62 61 59 58 58 60 61 62 61 61 62 62 62 62 62
34 38 29 25 26 24 21 23 23 19 15 18 19 21 21 18 18 15 17 17 19 19 23 25 27 27 24 25 28 34 45 58 60 63 64 65 66 67 68 68 68 68 69 68 69 69 70 69 69 70 69 66 69 67 65 66 68 69 69 69 70 70 70 70 70 70 69 69 69 68 68 67 66 64 62 60 60 60 60 60 61 61 61 60 57 56 56 58 59 60 61 61 61 61 61 61 61
37 35 32 31 24 23 24 17 19 18 15 17 19 20 20 21 20 17 16 15 17 21 26 26 32 25 15 19 21 29 46 59 61 63 65 65 66 67 68 68 68 68 68 68 68 69 70 70 70 70 69 68 68 70 69 69 64 67 68 68 69 69 69 69 69 68 68 68 68 67 66 65 64 64 64 63 62 61 60 60 59 61 61 60 58 56 57 58 59 59 60 60 60 61 61 60 60
37 35 31 26 21 23 23 23 24 22 16 16 20 21 19 20 21 17 17 19 23 30 26 22 28 21 23 21 25 33 53 60 63 64 64 65 66 66 67 68 67 68 67 68 68 69 69 68 70 71 70 69 69 69 69 69 65 64 66 66 67 68 68 68 68 67 65 65 65 64 62 63 61 62 60 61 61 61 60 58 60 59 60 60 59 58 58 58 58 59 60 60 60 60 60 60 59
35 38 23 23 20 22 25 20 22 15 21 21 20 19 16 17 21 21 23 22 20 23 24 26 26 29 25 25 29 32 51 62 61 63 63 64 65 65 66 66 66 66 67 67 68 68 68 69 68 68 70 70 69 69 69 69 69 63 64 64 65 66 67 66 66 62 60 60 62 61 62 64 61 61 60 60 58 60 58 59 59 58 58 58 59 58 58 58 57 58 59 59 58 58 56 57 57
36 24 23 21 23 20 24 20 20 23 17 18 19 19 16 17 20 22 23 22 23 24 24 25 27 28 29 31 37 38 55 61 62 63 63 63 63 64 65 65 65 65 65 66 66 67 67 68 68 67 69 70 69 69 70 70 70 66 69 68 69 66 63 62 66 68 65 67 60 65 66 64 63 62 61 60 59 60 60 58 58 57 56 58 57 56 56 56 56 57 57 56 55 54 54 53 53
28 26 23 16 23 21 21 20 20 16 18 16 19 20 19 17 19 21 18 19 20 20 21 23 23 26 30 33 40 35 57 60 62 62 61 62 62 62 63 64 65 65 64 65 65 65 66 66 67 67 67 68 69 70 69 69 69 69 69 68 69 65 67 68 68 67 68 68 68 67 65 64 63 62 61 61 61 59 61 58 58 58 58 58 57 56 56 56 56 56 55 53 52 52 52 52 52
24 28 17 17 30 20 22 19 19 20 19 18 19 20 20 19 20 22 18 18 21 17 16 22 21 21 26 41 44 46 58 60 61 61 60 60 62 60 61 62 64 64 64 64 64 62 63 65 66 64 67 67 67 68 69 69 69 68 68 68 69 68 68 68 68 68 68 67 68 66 66 65 63 63 61 60 61 61 60 57 58 58 58 57 57 55 56 55 54 53 51 49 49 50 49 48 49
25 18 13 20 21 20 21 22 20 20 20 19 19 20 19 21 20 21 18 17 17 17 18 16 17 19 23 40 45 54 56 59 60 61 59 58 60 61 60 61 63 64 64 65 64 62 63 62 61 62 64 66 67 68 69 69 69 70 69 69 69 69 68 68 67 67 68 67 67 66 66 65 64 63 62 61 60 59 58 57 56 54 54 54 53 50 47 48 47 47 46 46 47 48 48 48 48
25 18 22 21 22 22 22 22 24 21 22 20 20 18 19 22 21 21 20 14 12 14 17 21 19 21 26 38 47 53 55 56 59 60 60 59 59 60 60 62 61 63 60 62 63 61 62 62 62 61 62 64 66 67 68 69 69 69 69 68 69 69 69 68 68 67 68 68 67 67 66 66 64 63 63 63 61 60 58 57 56 52 50 50 47 45 45 47 47 48 47 46 45 46 46 45 43
9 21 21 22 22 21 23 23 24 22 21 19 19 20 21 20 20 22 20 18 17 21 23 24 23 24 26 35 49 52 54 55 57 59 60 59 59 59 59 61 60 60 61 62 62 62 60 59 60 61 62 63 64 66 66 67 69 69 68 68 68 68 68 67 67 67 67 68 67 67 66 66 64 63 62 63 62 60 60 56 52 49 49 48 47 46 48 48 46 46 46 46 45 44 43 42 41
23 16 21 22 23 22 24 24 25 22 20 20 21 21 20 20 18 22 21 21 20 22 24 28 29 29 28 40 47 50 53 55 56 57 58 59 59 59 59 58 61 61 60 61 61 59 58 58 58 60 60 61 63 63 64 65 67 68 68 67 68 67 68 67 67 67 67 68 67 66 65 66 64 63 62 62 62 61 59 56 53 50 49 49 48 48 48 47 46 46 47 46 44 43 41 39 37
19 19 22 24 24 25 25 24 22 22 21 22 23 20 20 21 21 22 20 21 21 22 27 29 29 29 28 32 45 48 53 54 55 57 57 58 58 60 60 59 58 60 60 61 58 57 57 57 56 58 59 59 60 61 63 64 67 68 69 68 68 65 67 68 67 67 67 67 67 66 66 66 66 64 63 62 63 61 61 58 56 52 51 51 50 48 49 48 47 46 45 44 43 41 39 38 35
24 23 23 24 24 25 24 23 23 24 23 23 21 20 22 23 23 21 21 21 24 27 25 28 29 28 28 29 36 47 50 52 55 55 56 57 56 57 59 59 58 57 60 61 58 57 56 55 56 59 60 60 59 60 62 63 65 68 69 68 68 66 67 68 67 67 67 67 67 66 66 66 66 63 64 63 62 62 61 59 57 56 51 51 51 50 49 48 46 45 45 45 43 40 37 34 31
24 24 24 24 25 25 26 24 24 24 25 23 21 21 21 23 22 15 22 27 28 27 25 29 28 26 27 29 30 37 46 50 53 54 55 55 54 54 56 58 58 58 58 59 60 58 56 54 56 58 59 58 59 60 61 62 64 66 67 68 68 67 67 66 66 66 67 67 66 66 66 66 65 64 65 64 63 62 61 58 57 57 54 53 53 52 50 49 47 46 46 43 41 38 33 30 28
25 24 24 24 25 25 25 24 25 25 22 24 22 21 23 22 23 20 23 28 29 26 25 27 29 28 27 29 31 33 34 41 50 53 52 52 53 53 53 54 55 57 58 59 59 57 56 55 56 57 57 58 58 59 60 61 62 64 65 66 66 67 68 66 66 66 66 67 66 66 66 65 65 65 64 64 63 63 61 59 57 57 56 54 54 53 51 49 47 47 46 44 41 37 32 29 29
24 24 20 23 24 23 25 24 25 26 22 24 23 22 21 22 21 23 26 27 28 27 26 26 27 28 31 32 31 32 33 34 37 45 49 51 52 52 52 53 53 54 57 58 58 56 56 55 55 56 56 57 57 58 59 60 62 62 64 65 64 66 67 67 66 66 66 66 66 66 66 65 63 64 64 64 64 63 62 60 59 58 56 55 54 54 53 52 48 46 45 42 39 36 33 32 32
25 25 24 20 21 20 25 27 25 24 23 24 24 18 16 20 22 24 25 25 26 25 25 25 27 28 29 31 30 31 32 35 35 37 40 47 51 50 51 50 51 52 53 54 55 55 56 55 55 56 56 56 57 56 57 59 61 62 62 63 64 65 65 66 66 65 65 65 65 65 66 65 63 63 64 63 64 64 63 62 60 59 58 56 55 54 50 48 45 44 43 40 39 35 31 28 25
22 23 25 26 20 18 25 26 24 23 24 24 23 21 16 20 21 25 27 27 25 23 23 24 25 27 28 32 32 32 32 34 34 35 38 41 45 49 50 49 49 50 51 52 53 54 52 54 54 53 55 55 56 56 57 59 60 60 61 62 62 64 63 64 65 64 64 64 64 65 65 65 64 63 64 63 63 63 63 62 61 58 58 56 55 53 51 48 46 43 40 37 35 31 29 28 27
23 19 21 27 20 21 23 27 25 22 23 24 23 24 20 20 21 25 27 27 26 24 24 24 25 26 27 29 29 29 30 32 34 34 36 38 40 42 48 49 48 48 49 51 52 52 51 52 53 53 54 54 56 55 56 58 59 59 60 59 62 63 63 62 63 64 63 63 63 64 64 64 64 64 63 63 62 62 62 60 60 58 57 55 55 54 51 47 45 45 42 36 31 30 29 29 27
24 22 29 23 25 23 19 25 25 25 23 24 23 19 20 17 21 24 27 26 26 25 24 26 25 26 26 26 28 28 30 31 34 33 34 36 39 41 43 46 49 48 48 49 51 52 51 52 52 52 53 53 53 53 55 57 59 59 60 61 61 62 62 62 61 62 63 62 63 63 63 63 63 63 63 62 61 61 62 59 58 57 56 55 55 54 52 48 45 44 42 39 33 30 30 29 26
23 26 20 29 20 19 14 25 25 28 23 22 23 22 21 20 22 23 25 26 26 24 24 24 25 26 27 28 28 27 28 30 30 32 33 35 37 39 41 45 47 48 49 49 50 51 50 52 53 53 53 53 53 54 54 56 57 59 60 60 60 61 61 60 60 60 61 61 62 62 62 61 62 62 62 61 61 60 59 58 57 57 56 56 54 54 52 48 46 43 40 36 31 29 26 25 24
20 22 22 21 23 23 20 20 24 24 22 22 22 22 22 22 23 23 23 26 24 24 24 24 24 25 25 27 27 26 27 29 29 31 33 33 36 39 41 44 46 47 48 49 50 50 51 52 52 52 52 53 54 54 55 55 56 57 58 58 58 59 59 57 58 58 59 60 61 61 61 60 60 60 60 61 60 58 57 56 55 55 55 55 54 53 51 49 48 47 41 37 31 27 25 26 24
15 21 19 23 17 21 19 22 26 24 22 22 22 22 21 22 23 23 24 24 25 24 25 25 25 25 25 26 27 28 30 27 29 34 36 34 36 38 40 43 45 47 47 48 49 50 51 51 51 52 52 52 53 53 55 55 56 56 56 55 55 55 54 53 54 57 56 57 57 59 60 60 59 59 58 57 57 56 54 52 53 53 54 54 52 51 50 49 47 44 41 36 31 29 27 26 25
26 29 27 20 20 19 24 25 27 27 24 23 23 23 23 24 24 24 25 25 26 25 25 26 27 27 28 28 27 30 30 29 41 38 37 37 39 39 40 43 44 46 47 47 48 50 50 50 50 51 52 52 52 53 54 54 54 54 55 55 55 54 53 52 52 52 52 55 55 57 58 58 56 56 56 56 55 53 54 53 52 52 52 52 51 50 49 48 47 42 37 31 28 26 26 26 24
20 23 24 22 29 18 24 25 27 27 24 21 24 23 24 23 23 24 24 24 24 24 25 25 25 26 27 30 31 32 31 35 39 36 34 38 38 41 42 43 44 45 46 47 48 49 49 49 50 51 52 52 52 52 53 54 54 54 55 55 56 52 51 52 52 50 50 50 52 55 55 56 56 56 53 54 53 53 52 52 52 50 51 51 50 49 48 45 43 40 36 33 27 25 23 26 24
28 22 26 26 22 28 25 24 27 27 24 21 23 23 23 23 24 25 25 25 25 26 26 26 26 27 28 29 30 30 33 33 33 32 35 34 41 42 42 42 44 44 45 47 48 49 50 49 50 50 51 52 52 52 53 53 54 55 55 54 51 49 47 47 51 49 48 47 48 51 52 53 55 54 54 50 51 51 50 50 48 48 50 51 51 49 46 43 39 36 33 29 26 26 24 28 26
26 27 23 19 29 19 11 26 27 26 24 24 26 25 24 25 25 26 26 26 26 28 28 29 30 29 28 28 29 32 32 34 33 32 31 32 39 40 41 42 43 44 46 47 48 49 49 49 49 50 51 51 52 52 53 54 55 50 49 50 50 48 47 44 45 45 46 45 46 46 48 50 50 50 50 50 50 49 50 49 48 48 49 51 49 48 45 42 37 33 31 29 27 24 24 26 30
32 31 27 24 27 24 19 17 26 27 27 29 26 26 25 25 24 23 26 29 29 29 29 29 31 34 33 36 37 35 31 31 33 33 33 33 35 37 40 42 43 44 46 47 48 48 48 49 49 50 50 51 51 52 53 51 47 46 44 44 44 45 45 44 44 44 44 45 43 44 46 47 48 48 48 48 47 47 48 48 47 47 46 48 48 46 44 40 36 34 33 30 28 25 25 27 32
27 33 29 23 24 22 24 27 25 23 25 29 28 13 17 22 24 23 23 24 25 27 29 29 30 31 34 31 32 34 37 36 34 32 33 35 35 36 39 41 43 44 44 46 48 49 48 48 49 50 50 50 51 52 52 49 47 44 44 45 46 49 45 45 46 46 43 43 44 43 43 43 45 46 47 47 46 45 46 47 48 45 46 47 46 44 41 39 36 34 33 32 31 31 28 28 30
26 20 31 26 25 27 28 27 27 20 15 27 27 15 12 19 18 16 18 21 18 22 28 25 24 25 28 32 34 33 34 35 36 34 34 33 35 37 39 41 42 43 43 46 48 48 48 49 49 50 49 49 51 51 49 48 48 45 47 49 49 49 48 47 47 47 45 45 46 42 42 41 42 44 44 44 44 43 44 43 45 47 45 46 46 44 41 38 36 36 34 34 34 33 33 30 31
19 34 32 29 27 28 30 28 29 23 30 31 28 25 20 20 19 22 24 22 21 24 26 27 28 29 29 28 30 33 34 34 36 36 35 34 34 35 35 39 40 42 44 47 48 48 48 48 49 49 49 49 50 49 48 48 48 48 50 50 50 51 51 48 47 46 46 44 42 41 40 40 39 39 40 41 41 40 39 40 42 44 47 44 44 45 44 40 38 39 36 35 36 34 35 33 33
25 33 33 31 27 31 32 30 27 29 24 20 26 34 18 19 22 26 27 23 23 23 22 24 26 28 27 30 31 33 33 35 34 37 37 35 35 35 35 38 40 42 44 46 47 48 48 49 49 49 49 48 49 48 47 48 48 49 50 50 51 51 52 49 47 44 42 41 41 39 37 36 36 36 36 37 38 38 37 37 39 42 44 45 43 43 42 40 38 38 37 36 37 35 35 36 34
32 32 33 32 33 33 33 29 29 27 21 20 25 28 19 11 24 21 26 24 20 18 18 19 22 25 30 30 32 33 32 36 37 35 35 36 36 35 36 37 39 42 44 46 47 48 48 49 48 49 49 48 48 48 47 48 49 48 50 51 51 51 49 45 45 42 41 39 40 38 38 36 35 34 33 33 35 35 35 35 37 39 41 42 40 42 41 40 39 38 38 37 38 37 35 37 35
34 35 32 32 32 31 30 30 28 25 18 20 25 26 18 8 22 18 21 24 18 15 16 18 24 29 28 30 33 37 34 36 38 38 36 35 36 34 36 36 38 41 44 45 47 48 48 49 48 48 48 47 48 48 47 48 48 49 49 51 51 50 45 43 41 40 38 38 38 37 37 37 35 34 32 30 32 32 32 32 34 36 38 39 39 41 41 40 38 38 37 38 38 38 36 37 35
35 33 31 30 27 28 28 27 26 19 14 24 27 28 23 11 12 21 20 20 21 22 16 7 14 19 33 34 33 33 33 35 36 35 36 36 36 36 37 36 39 41 44 45 47 48 48 48 48 48 48 47 47 47 47 47 48 48 48 50 50 48 44 43 42 40 38 37 37 35 35 35 34 33 30 28 28 28 28 29 31 33 34 35 37 39 39 38 38 37 36 36 36 38 37 36 35
33 31 27 18 16 16 17 25 18 19 14 24 24 26 23 20 11 20 19 20 21 24 23 22 22 22 27 30 35 36 38 36 37 38 38 38 37 38 38 38 40 41 43 44 46 47 47 47 47 47 47 47 46 47 46 47 47 46 47 49 49 46 46 44 41 41 38 38 37 36 34 34 32 31 27 26 26 27 25 27 27 29 30 32 35 36 37 37 36 35 34 36 35 37 34 35 33
30 26 23 17 11 14 12 17 16 13 18 19 20 26 20 20 20 21 19 19 19 23 25 29 28 28 29 33 35 32 39 38 38 39 40 40 40 40 39 39 40 42 43 44 45 46 46 47 46 46 46 47 46 46 46 46 47 46 46 47 47 45 45 44 43 43 39 39 37 36 34 35 33 30 28 28 26 26 25 26 27 28 30 31 33 34 35 35 35 33 33 34 35 34 33 35 33
28 33 26 20 16 16 13 11 7 11 14 19 20 24 23 20 12 23 22 23 26 26 26 30 32 32 33 35 35 35 35 35 39 39 39 39 39 39 40 40 41 42 43 44 45 46 46 46 46 46 46 46 45 46 46 46 47 46 46 47 47 43 43 43 43 44 40 41 40 39 38 38 34 34 33 28 26 25 25 26 27 28 30 30 31 33 34 33 33 31 31 34 30 29 31 29 29
33 35 30 25 21 18 5 17 15 14 16 20 22 20 21 20 24 26 25 27 27 28 29 30 29 29 33 32 33 34 33 33 36 37 38 38 38 38 39 40 42 42 43 45 45 46 46 46 46 46 46 46 46 45 45 45 46 45 47 47 45 44 42 42 43 42 41 43 43 41 38 37 37 36 32 28 27 26 26 26 26 28 28 29 29 30 31 30 31 29 28 28 29 30 29 29 27
29 29 26 25 27 19 20 21 18 21 17 14 25 18 19 20 15 19 20 19 21 23 25 25 27 30 33 33 35 34 34 36 37 38 38 39 38 38 39 40 41 42 43 44 45 46 46 46 46 46 46 45 45 45 45 45 45 45 44 44 44 42 41 40 40 41 40 40 41 40 41 40 39 35 33 30 27 25 25 26 25 26 27 28 28 28 28 28 29 27 26 27 26 25 26 26 24
30 25 27 32 32 31 19 12 21 17 13 16 19 15 9 11 11 19 21 21 19 20 20 21 25 31 30 35 37 37 37 38 37 37 38 38 38 38 39 40 41 42 43 44 45 46 47 47 47 46 45 44 44 45 44 44 44 45 44 43 41 40 40 39 39 38 38 38 38 38 38 40 38 36 32 30 26 25 26 24 25 25 26 26 27 26 27 27 27 24 27 25 24 25 24 22 24
29 28 37 23 21 19 21 18 14 15 16 17 16 15 16 17 13 17 15 20 20 20 22 23 22 24 28 31 34 36 37 38 37 36 37 37 38 38 38 39 40 41 42 44 45 46 47 46 46 46 45 45 44 45 44 44 44 44 44 42 40 39 38 38 37 36 36 36 36 35 37 38 37 32 28 26 24 23 24 25 24 24 23 25 25 24 24 24 24 23 23 22 24 23 21 21 21
35 33 28 34 25 20 22 18 23 15 13 16 19 13 10 26 17 16 13 12 18 16 21 21 22 23 26 29 34 36 38 39 39 37 38 38 38 37 38 38 39 40 42 44 45 46 45 46 45 45 46 45 44 44 44 43 44 44 43 42 40 38 37 36 36 35 33 34 35 35 35 34 32 26 26 25 23 22 23 22 21 22 23 22 22 22 22 22 22 20 16 16 17 20 15 13 16
27 26 25 28 27 29 26 24 20 14 13 12 11 11 10 16 19 16 12 13 16 18 23 31 32 30 31 33 34 37 37 38 38 38 38 38 37 37 38 38 39 40 42 43 45 45 45 45 45 45 45 45 44 43 43 43 43 42 41 38 38 37 36 36 35 34 32 32 32 33 32 31 28 27 25 23 22 22 21 20 20 21 21 20 21 19 17 16 15 14 12 13 12 12 11 12 12
27 25 25 25 26 24 21 19 25 23 17 17 13 15 17 18 23 18 15 17 20 26 27 29 30 29 33 38 38 37 39 37 37 38 37 38 36 36 37 38 40 40 40 41 43 44 44 45 45 45 45 44 44 43 42 42 42 41 40 39 37 36 36 34 33 31 31 31 31 30 30 29 27 27 25 23 21 22 22 20 21 20 18 18 18 17 14 13 11 11 12 19 13 11 12 12 12